Location: Williams Lake
(52.1170°N, 122.1500°W)
Time: 13:28:51
(UTC-07:00)

Daily predictions for brighter satellites

Satellite Brightness Start Highest point End
(mag) Time Altitude Azimuth Time Altitude Azimuth Time Altitude Azimuth
Cosmos 1674 Rocket 4.0 21:44:27 10° NNW 21:48:55 66° W 21:53:19 10° S
Cosmos 1461 3.2 21:44:27 10° SW 21:49:06 86° NW 21:53:36 10° NE
Sich 1 Rocket 3.8 21:45:50 10° S 21:50:21 62° E 21:54:54 10° NNE
NOSS 2-2 (C) 3.9 21:47:46 10° SSW 21:51:53 50° SE 21:56:51 10° NE
H-2A R/B 3.0 21:47:13 10° SE 21:52:05 36° ENE 21:56:52 10° N
SPOT 5 3.3 21:49:41 10° S 21:54:58 77° WSW 22:00:22 10° NNW
Cosmos 407 Rocket 4.0 21:53:32 10° NNW 21:58:42 59° WSW 22:03:53 10° S
Cosmos 1892 3.7 21:55:12 10° SSW 21:58:57 51° WNW 22:02:46 10° N
NOAA 11 4.3 21:56:59 10° SSE 22:02:26 69° ENE 22:07:56 10° NNW
Terra 2.8 22:00:34 10° SE 22:04:51 35° ENE 22:09:11 10° N
Coronas F rocket 3.4 22:04:26 10° SW 22:06:49 29° WNW 22:09:12 10° N
SPOT 1/Viking Rocket 3.6 22:01:50 10° SSE 22:07:03 84° ENE 22:12:18 10° NNW
Cosmos 1782 Rocket 4.0 22:03:00 10° SSE 22:07:15 45° E 22:11:32 10° NNE
Cosmos 2341 Rocket 4.1 22:02:31 10° S 22:08:43 62° E 22:14:53 10° NNE
Cosmos 614 Rocket 4.3 22:04:21 10° NNW 22:09:24 55° ENE 22:14:18 10° SE
Cosmos 1452 Rocket 3.8 22:04:52 10° S 22:09:54 48° ESE 22:14:58 10° NE
NOSS 2-2 (E) 3.7 22:06:27 10° SW 22:10:47 74° SE 22:16:10 10° NE
Cosmos 1140 Rocket 3.5 22:07:37 10° NNW 22:12:48 81° ENE 22:17:57 10° SSE
Timation 2 Rocket 3.9 22:08:04 10° NNW 22:14:10 82° ENE 22:20:00 11° SE
Okean 3 3.5 22:10:12 10° NNW 22:14:32 86° W 22:18:49 10° S
Cosmos 1975 Rocket 3.0 22:13:01 10° N 22:17:22 86° ENE 22:21:42 10° S
DNEPR-1 R/B 4.1 22:15:05 10° NW 22:21:01 82° SW 22:25:27 12° SE
deb Chang Zheng 4 4.3 22:16:49 10° N 22:21:09 57° WNW 22:25:28 10° SSW
CARTOSAT-1 4.0 22:21:54 12° SE 22:25:44 49° ENE 22:29:55 10° N
CZ-4B R/B 3.5 22:22:24 10° NNE 22:27:26 64° ESE 22:32:17 10° S
OPS 6432 4.1 22:24:36 10° SW 22:27:47 79° SE 22:30:58 10° NE
Cosmos 1536 Rocket 4.2 22:25:44 10° N 22:30:02 43° ENE 22:33:38 14° SE
SL-8 R/B 4.1 22:26:27 10° SW 22:30:57 40° SSE 22:35:26 10° E
Cosmos 1908 Rocket 3.9 22:28:06 10° SSW 22:32:29 68° WNW 22:36:57 10° N
Cosmos 1378 Rocket 4.5 22:29:00 10° NNW 22:33:08 45° W 22:37:15 10° SSW
SL-8 Rocket 4.2 22:27:02 10° S 22:33:09 57° E 22:39:15 10° NNE
Cosmos 1184 Rocket 2.7 22:31:58 10° S 22:35:18 76° E 22:38:39 10° NNE
USA 234 3.9 22:31:24 10° ENE 22:37:04 30° SE 22:42:41 10° S
USA 245 4.1 22:34:27 10° S 22:37:32 44° W 22:41:25 10° NNW
Cosmos 1850 Rocket 4.1 22:32:21 10° NNW 22:37:41 85° WSW 22:42:23 14° SSE
TIMED 4.5 22:34:49 10° SSW 22:39:12 84° ESE 22:43:36 10° NNE
Cosmos 2154 Rocket 4.3 22:33:37 10° SSW 22:39:49 71° WNW 22:46:03 10° N
SL-08 RB Rocket 4.0 22:35:21 10° S 22:39:55 69° WSW 22:44:35 10° NNW
CZ-4 R/B 3.8 22:38:47 10° NNE 22:43:30 68° ESE 22:48:08 10° S
Meteor 1-14 Rocket 4.4 22:38:07 10° S 22:43:38 54° E 22:49:05 10° NNE
ATLAS 5 CENTAUR R/B 4.5 22:41:12 10° WNW 22:45:04 18° WSW 22:49:04 10° SSW
Cosmos 1862 4.1 22:42:38 10° SSW 22:46:38 55° WNW 22:50:41 10° N
ARGOS 3.7 22:43:23 10° S 22:48:38 54° W 22:53:54 10° NNW
COSMOS 2487 3.9 22:46:27 10° NW 22:49:44 32° WSW 22:52:56 10° SSW
Cosmos 2151 Rocket 4.0 22:46:51 15° SSE 22:50:25 47° E 22:54:47 10° NNE
Cosmos 1825 3.0 22:49:36 10° SSW 22:53:20 51° WNW 22:57:06 10° N
Cosmos 1741 Rocket 4.3 22:51:04 10° NNW 22:56:16 65° WSW 23:00:32 15° S
Cosmos 2084 3.4 22:53:36 10° SSW 22:57:15 44° SE 23:00:57 10° NE
NOSS 5 (C) 4.2 22:56:43 10° SSW 22:59:51 59° SE 23:02:59 10° NE
Cosmos 1833 Rocket 2.7 22:54:23 10° NNW 23:00:03 85° ENE 23:04:19 18° SSE
Cosmos 1812 3.0 22:56:52 10° N 23:00:42 53° ENE 23:03:04 21° SSE
Cosmos 2278 Rocket 2.2 22:55:11 10° SSW 23:00:51 77° ESE 23:06:34 10° NNE
Cosmos 1844 4.0 22:58:16 10° SW 23:04:02 76° WNW 23:09:54 10° NNE
CZ-4C R/B 4.0 23:03:28 14° S 23:06:35 51° W 23:10:37 10° NNW
Cosmos 1408 4.1 23:03:40 10° SW 23:07:04 35° WNW 23:10:29 10° N
ALOS 2 4.5 23:05:51 11° ESE 23:08:55 20° ENE 23:12:09 10° NNE
Intercosmos 25 3.6 23:07:03 10° SSW 23:10:30 53° WNW 23:13:38 10° N
Cosmos 1844 Rocket 3.5 23:06:06 10° SW 23:11:38 54° NW 23:17:11 10° NNE
Cosmos 2366 rocket 4.0 23:05:58 12° S 23:11:53 78° E 23:18:15 10° NNE
CZ-4B R/B 3.9 23:13:18 10° ENE 23:14:09 11° ENE 23:15:00 10° NE
Okean 1-7 Rocket 4.1 23:09:47 10° N 23:14:13 50° ENE 23:16:53 22° SE
APEX 3.8 23:11:13 15° S 23:14:35 56° ESE 23:19:49 10° NE
Gbstr 26 Del rocket 3.1 23:09:53 10° W 23:15:02 73° SSW 23:18:21 16° ESE
Cosmos 2082 Rocket 2.4 23:09:21 10° NW 23:15:03 65° WSW 23:19:06 19° SSE
Cosmos 1242 Rocket 4.3 23:12:50 10° NW 23:15:56 27° W 23:19:03 10° SSW
Cosmos 1025 Rocket 4.2 23:15:54 10° N 23:19:51 31° ENE 23:22:18 19° ESE
Okean 1 Rocket 3.8 23:19:26 22° SE 23:21:41 38° E 23:25:50 10° NNE
USA 229 DEB 3.9 23:15:01 10° NW 23:22:01 66° SW 23:27:08 20° SSE
USA 229 3.9 23:15:06 10° NW 23:22:07 66° SW 23:27:14 20° SSE
AVUM R/B 3.3 23:18:59 10° NW 23:22:31 86° WSW 23:24:12 29° SSE
Iridium 4 Rocket 4.5 23:17:13 10° N 23:22:40 42° ENE 23:26:22 20° SE
Okean 2 Rocket 4.2 23:18:54 10° SW 23:23:08 43° WNW 23:27:22 10° N
Cosmos 1300 Rocket 4.0 23:22:06 23° SSE 23:24:27 45° E 23:28:43 10° NNE
Cosmos 1400 Rocket 4.5 23:26:44 18° ESE 23:28:00 20° E 23:31:05 10° NE
H-2A R/B 2.9 23:26:57 14° SSW 23:31:25 45° W 23:36:32 10° NNW
Cosmos 2297 3.7 23:26:48 10° SSW 23:32:29 72° ESE 23:38:14 10° NNE
Cosmos 2218 Rocket 4.3 23:29:08 10° SSW 23:35:30 68° WNW 23:41:55 10° N
Cosmos 1420 Rocket 4.3 23:31:05 10° SSW 23:36:19 69° WNW 23:41:33 10° NNE
BREEZE-M DEB (TANK) 4.0 23:32:40 10° WSW 23:36:32 73° S 23:50:12 10° E
Cosmos 1486 Rocket 4.1 23:33:11 10° NNW 23:38:35 79° ENE 23:41:49 24° SSE
NOSS 3-1 (A) 4.1 23:33:08 10° NW 23:40:23 73° NE 23:47:30 14° SE
ASTEX 1 3.4 23:36:34 10° N 23:41:32 88° E 23:44:49 22° S
Terra 2.9 23:39:04 15° SSW 23:42:35 37° W 23:47:02 10° NNW
Okean 1 3.6 23:39:56 10° NNW 23:43:58 64° W 23:46:07 26° S
Cosmos 1000 Rocket 4.5 23:38:22 10° N 23:44:38 80° E 23:48:41 24° SSE
Meteor 1-19 Rocket 4.4 23:39:30 10° N 23:45:23 67° ENE 23:48:56 24° SSE
Lacrosse 5 3.8 23:53:43 14° ESE 23:53:43 14° ESE 23:55:24 10° E
